This demonstration page uses our WeatherBlox Daily Observations layout. Learn more.

Left ArrowRight Arrow

Hourly Observations for March 29, 2020

Temp ( °F °C ) Dew Point ( °F °C ) Humidity (%) Winds ( mph kmh ) Pressure ( in mb ) Visibility ( mi km ) Precip ( " mm )
12:53 am 00:53 Clear 30 -1.1 25 -3.9 82 82 W 5 7 29.88 1012 10 16 N/A
1:53 am 01:53 Clear 32 undefined 25 -3.9 75 75 WSW 3 6 29.87 1011 10 16 N/A
2:53 am 02:53 Clear 31 -0.6 25 -3.9 79 79 VRB 3 6 29.87 1011 10 16 N/A
3:53 am 03:53 Clear 29 -1.7 24 -4.4 82 82 SW 9 15 29.85 1011 10 16 N/A
4:53 am 04:53 Clear 29 -1.7 24 -4.4 82 82 WSW 9 15 29.85 1011 10 16 N/A
5:53 am 05:53 Clear 33 0.6 25 -3.9 72 72 WSW 12 19 29.85 1011 10 16 N/A
6:53 am 06:53 Clear 31 -0.6 24 -4.4 76 76 SW 10 17 29.86 1011 10 16 N/A
7:53 am 07:53 Sunny 38 3.3 28 -2.2 68 68 SW 14 22 29.87 1012 10 16 N/A
8:53 am 08:53 Sunny 43 6.1 29 -1.7 58 58 SW 13 20 29.86 1011 10 16 N/A
9:53 am 09:53 Sunny 47 8.3 27 -2.8 46 46 SW 22 35 29.85 1011 10 16 N/A
10:53 am 10:53 Sunny 50 10 29 -1.7 44 44 SW 21 33 29.85 1011 10 16 N/A
11:53 am 11:53 Sunny 56 13.3 30 -1.1 37 37 SW 14 22 29.82 1010 10 16 N/A
12:53 pm 12:53 Sunny 59 15 29 -1.7 32 32 SW 20 31 29.81 1010 10 16 N/A
1:53 pm 13:53 Mostly Sunny 60 15.6 28 -2.2 30 30 WSW 18 30 29.80 1009 10 16 N/A
2:53 pm 14:53 Mostly Cloudy 60 15.6 27 -2.8 28 28 WSW 16 26 29.78 1009 10 16 N/A
3:53 pm 15:53 Partly Cloudy 62 16.7 28 -2.2 28 28 WSW 15 24 29.77 1008 10 16 N/A
4:53 pm 16:53 Mostly Sunny 61 16.1 27 -2.8 27 27 WSW 22 35 29.78 1008 10 16 N/A
5:53 pm 17:53 Sunny 60 15.6 27 -2.8 28 28 WSW 14 22 29.77 1008 10 16 N/A
6:53 pm 18:53 Sunny 57 13.9 28 -2.2 33 33 WSW 14 22 29.78 1009 10 16 N/A
7:53 pm 19:53 Clear 49 9.4 26 -3.3 41 41 VRB 6 9 29.78 1009 10 16 N/A
8:53 pm 20:53 Clear 41 5 26 -3.3 55 55 SSE 8 13 29.79 1009 10 16 N/A
9:53 pm 21:53 Clear 39 3.9 26 -3.3 60 60 N N/A 29.80 1009 10 16 N/A
10:53 pm 22:53 Clear 40 4.4 25 -3.9 55 55 N N/A 29.80 1009 10 16 N/A
11:53 pm 23:53 Mostly Clear 36 2.2 27 -2.8 70 70 S 8 13 29.80 1009 10 16 N/A

Powered by AerisWeather